Simultaneous Nadir Overpasses (SNOs) Predictions

Prediction of SNOs between LANDSAT-8 and METOP-B Satellite Orbit:

Table of predicted SNOs for the next 14.0 days since TLE Epoch: 10/31/2025
Index Date (LANDSAT-8) Time (LANDSAT-8) Lat,Lon (LANDSAT-8) SZA (LANDSAT-8 ) Date (METOP-B) Time (METOP-B) Lat,Lon (METOP-B) SZA (METOP-B ) Distance(km) Time Diff (sec)
1 10/31/2025 18:51:22 81.35, -59.01 98.46 10/31/2025 18:51:44 81.36, -59.13 98.47 1.98 22
2 11/03/2025 13:36:10 -81.36,-160.07 80.65 11/03/2025 13:35:43 -81.36,-160.16 80.67 1.53 27
3 11/03/2025 14:25:36 81.36, 7.66 99.38 11/03/2025 14:26:23 81.36, 7.52 99.38 2.38 47
4 11/06/2025 09:10:25 -81.36, -93.60 79.80 11/06/2025 09:10:23 -81.36, -93.63 79.80 0.60 2
5 11/06/2025 09:59:51 81.36, 74.10 100.23 11/06/2025 10:01:03 81.36, 74.08 100.26 0.69 72
6 11/09/2025 03:55:13 81.35, 165.01 100.98 11/09/2025 03:54:23 81.36, 165.08 100.97 1.37 50
7 11/09/2025 04:44:40 -81.35, -27.36 79.02 11/09/2025 04:45:03 -81.36, -27.19 78.98 3.02 23
8 11/11/2025 23:29:26 81.35,-128.62 101.74 11/11/2025 23:29:02 81.36,-128.54 101.75 1.73 24
9 11/12/2025 00:18:53 -81.35, 39.03 78.25 11/12/2025 00:19:42 -81.36, 39.16 78.21 2.51 49



Historial Predications of SNOs between LANDSAT-8 and METOP-B
